Location: Chełm
(51.1339°N, 23.4725°E)
Time: 07:16:39
(UTC+02:00)

ISS - Visible Passes

Search period start: 27 May 2018 00:00
Search period end: 06 June 2018 00:00
Orbit: 402 x 407 km, 51.6° (Epoch: 27 May)

Date Brightness Start Highest point End Pass type
(mag) Time Alt. Az. Time Alt. Az. Time Alt. Az.
27 May -3.2 00:23:55 10° W 00:26:25 40° WSW 00:26:25 40° WSW visible
27 May -3.7 21:55:09 10° W 21:58:26 79° N 22:01:44 10° E visible
27 May -3.9 23:31:41 10° W 23:34:56 66° SSW 23:35:43 45° SE visible
28 May -3.9 22:39:28 10° W 22:42:45 84° SSW 22:45:05 18° ESE visible
29 May -2.1 00:16:07 10° W 00:17:42 21° WSW 00:17:42 21° WSW visible
29 May -3.8 21:47:14 10° W 21:50:31 84° N 21:53:48 10° E visible
29 May -3.4 23:23:46 10° W 23:26:53 41° SSW 23:27:06 40° SSW visible
30 May -3.8 22:31:30 10° W 22:34:44 59° SSW 22:36:31 23° SE visible
31 May -1.4 00:08:38 10° W 00:09:09 12° WSW 00:09:09 12° WSW visible
31 May -3.9 21:39:14 10° W 21:42:31 78° SSW 21:45:47 10° ESE visible
31 May -2.5 23:15:58 10° W 23:18:35 24° SW 23:18:35 24° SW visible
01 Jun -3.1 22:23:32 10° W 22:26:35 36° SSW 22:28:04 23° SSE visible
02 Jun -3.5 21:31:11 10° W 21:34:24 52° SSW 21:37:33 10° SE visible
02 Jun -1.6 23:08:37 10° WSW 23:10:11 14° SW 23:10:11 14° SW visible
03 Jun -2.2 22:15:44 10° W 22:18:16 21° SW 22:19:42 16° S visible
04 Jun -2.7 21:23:11 10° W 21:26:09 31° SSW 21:29:05 10° SE visible
05 Jun -1.4 22:08:38 10° WSW 22:09:48 11° SW 22:10:58 10° SSW visible
